DW1143 Weather Reports


time (UTC)temp
C
wind
direction
speed
KPH
gust
KPH
rain 1hr
cm
rain 24hr
cm
rain mn
cm
humidity
%
barometer
mb
20260507152805 15 304 3.2 4.8 0.00 0.00 0.00 66 1013.9
20260507152306 15 254 1.6 9.7 0.00 0.00 0.00 66 1013.9
20260507151805 15 287 3.2 4.8 0.00 0.00 0.00 67 1013.9
20260507151305 15 267 0.0 0.0 0.00 0.00 0.00 67 1013.9
20260507150805 15 270 0.0 4.8 0.00 0.00 0.00 66 1013.9
20260507150305 15 218 0.0 0.0 0.00 0.00 0.00 66 1013.8
20260507145805 15 229 0.0 0.0 0.00 0.00 0.00 65 1013.8
20260507145307 15 233 0.0 3.2 0.00 0.00 0.00 65 1013.8
20260507144305 15 275 0.0 9.7 0.00 0.00 0.00 65 1013.9
20260507143804 15 245 3.2 9.7 0.00 0.00 0.00 66 1013.9
20260507143305 15 272 0.0 4.8 0.00 0.00 0.00 66 1013.9
20260507142805 15 244 1.6 8.0 0.00 0.00 0.00 66 1014.0
20260507142307 15 284 1.6 4.8 0.00 0.00 0.00 65 1014.0
20260507141805 15 250 0.0 3.2 0.00 0.00 0.00 66 1014.1
20260507141305 15 263 1.6 3.2 0.00 0.00 0.00 67 1014.1
20260507140805 15 265 0.0 3.2 0.00 0.00 0.00 69 1014.2
20260507140305 15 247 0.0 0.0 0.00 0.00 0.00 71 1014.2
20260507135805 14 246 0.0 0.0 0.00 0.00 0.00 70 1014.2
20260507135306 14 272 0.0 0.0 0.00 0.00 0.00 72 1014.2
20260507134305 14 227 0.0 1.6 0.00 0.00 0.00 73 1014.2
20260507133305 14 261 0.0 4.8 0.00 0.00 0.00 73 1014.4
20260507132805 14 267 1.6 4.8 0.00 0.00 0.00 74 1014.4
20260507131804 14 258 1.6 4.8 0.00 0.00 0.00 74 1014.4
20260507131305 14 259 0.0 3.2 0.00 0.00 0.00 72 1014.3
20260507130805 14 272 3.2 4.8 0.00 0.00 0.00 70 1014.3
20260507130305 15 269 1.6 4.8 0.00 0.00 0.00 70 1014.4
20260507125805 15 302 0.0 0.0 0.00 0.00 0.00 70 1014.3
20260507125307 15 305 0.0 0.0 0.00 0.00 0.00 70 1014.3
20260507124805 15 276 0.0 0.0 0.00 0.00 0.00 70 1014.3
20260507124305 15 279 0.0 0.0 0.00 0.00 0.00 70 1014.3
20260507123805 14 278 0.0 0.0 0.00 0.00 0.00 71 1014.4
20260507123305 14 277 0.0 0.0 0.00 0.00 0.00 72 1014.4
20260507122805 14 279 0.0 0.0 0.00 0.00 0.00 72 1014.5
20260507122307 14 271 0.0 0.0 0.00 0.00 0.00 72 1014.5
20260507121805 14 268 0.0 1.6 0.00 0.00 0.00 71 1014.5
20260507121304 14 254 0.0 1.6 0.00 0.00 0.00 71 1014.5
20260507120805 14 293 1.6 4.8 0.00 0.00 0.00 71 1014.4
20260507120305 14 273 0.0 4.8 0.00 0.00 0.00 70 1014.4
20260507115805 15 261 0.0 3.2 0.00 0.00 0.00 70 1014.5
20260507115307 15 264 1.6 8.0 0.00 0.00 0.00 70 1014.5
20260507114805 15 272 0.0 0.0 0.00 0.00 0.00 70 1014.5
20260507114305 15 271 0.0 0.0 0.00 0.00 0.00 69 1014.5
20260507113805 15 264 1.6 8.0 0.00 0.00 0.00 69 1014.4
20260507113305 15 266 1.6 3.2 0.00 0.00 0.00 65 1014.4
20260507112307 15 268 0.0 4.8 0.00 0.00 0.00 66 1014.4
20260507111805 15 267 3.2 8.0 0.00 0.00 0.00 66 1014.5
20260507111305 15 249 0.0 4.8 0.00 0.00 0.00 65 1014.6
20260507110805 15 277 4.8 8.0 0.00 0.00 0.00 66 1014.5
20260507110305 15 252 3.2 9.7 0.00 0.00 0.00 64 1014.5
20260507105805 16 274 3.2 8.0 0.00 0.00 0.00 63 1014.6
20260507105306 16 264 3.2 8.0 0.00 0.00 0.00 60 1014.6
20260507104805 16 96 1.6 8.0 0.00 0.00 0.00 60 1014.6
20260507104305 16 261 0.0 8.0 0.00 0.00 0.00 61 1014.7
20260507103305 15 95 3.2 14.5 0.00 0.00 0.00 66 1014.7
20260507102805 15 258 1.6 9.7 0.00 0.00 0.00 71 1014.7
20260507101805 15 262 0.0 3.2 0.00 0.00 0.00 70 1014.8
20260507101304 15 263 3.2 8.0 0.00 0.00 0.00 70 1014.8
20260507100805 15 252 1.6 9.7 0.00 0.00 0.00 68 1014.8
20260507100304 16 244 1.6 9.7 0.00 0.00 0.00 69 1014.7
20260507095805 15 314 1.6 9.7 0.00 0.00 0.00 69 1014.8
20260507095306 15 297 0.0 0.0 0.00 0.00 0.00 70 1014.8
20260507094805 15 266 0.0 0.0 0.00 0.00 0.00 71 1014.8
20260507094305 14 100 0.0 0.0 0.00 0.00 0.00 70 1014.8
20260507093305 14 248 0.0 0.0 0.00 0.00 0.00 71 1014.7
20260507091805 13 189 0.0 0.0 0.00 0.00 0.00 74 1014.9
20260507091305 13 115 0.0 0.0 0.00 0.00 0.00 74 1015.0
20260507090304 13 95 0.0 0.0 0.00 0.00 0.00 75 1014.9
20260507085805 13 41 0.0 1.6 0.00 0.00 0.00 76 1015.0
20260507083805 12 65 0.0 0.0 0.00 0.00 0.00 78 1015.0
20260507083305 12 115 0.0 8.0 0.00 0.00 0.00 78 1014.9
20260507082805 12 85 1.6 4.8 0.00 0.00 0.00 78 1014.9
20260507082306 11 114 0.0 3.2 0.00 0.00 0.00 78 1014.9
20260507081805 11 94 1.6 4.8 0.00 0.00 0.00 78 1015.0
20260507081304 11 105 0.0 0.0 0.00 0.00 0.00 79 1015.0
20260507080805 11 76 0.0 3.2 0.00 0.00 0.00 79 1015.0
20260507075805 11 49 0.0 4.8 0.00 0.00 0.00 80 1015.0
20260507075307 10 87 0.0 0.0 0.00 0.00 0.00 80 1015.1
20260507074804 10 102 0.0 0.0 0.00 0.00 0.00 80 1015.0
20260507074304 10 72 0.0 1.6 0.00 0.00 0.00 81 1015.0
20260507073805 10 83 1.6 9.7 0.00 0.00 0.00 81 1015.0
20260507073305 10 84 3.2 8.0 0.00 0.00 0.00 82 1015.0
20260507072307 10 105 0.0 8.0 0.00 0.00 0.00 82 1014.9
20260507071805 10 104 3.2 4.8 0.00 0.00 0.00 82 1014.9
20260507071305 10 68 1.6 8.0 0.00 0.00 0.00 83 1014.8
20260507070804 9 98 1.6 9.7 0.00 0.00 0.00 83 1014.8
20260507065805 9 79 0.0 0.0 0.00 0.00 0.00 83 1014.8
20260507065306 9 98 0.0 0.0 0.00 0.00 0.00 83 1014.8
20260507064805 9 87 0.0 0.0 0.00 0.00 0.00 83 1014.8
20260507064304 9 98 0.0 0.0 0.00 0.00 0.00 83 1014.8
20260507063805 8 107 0.0 0.0 0.00 0.00 0.00 83 1014.8
20260507063305 8 92 0.0 0.0 0.00 0.00 0.00 83 1014.7
20260507062805 8 93 0.0 4.8 0.00 0.00 0.00 83 1014.7
20260507062306 8 72 0.0 4.8 0.00 0.00 0.00 83 1014.7
20260507061804 8 84 1.6 11.3 0.00 0.00 0.00 83 1014.6
20260507061305 8 94 0.0 4.8 0.00 0.00 0.00 83 1014.6
20260507060305 8 86 1.6 4.8 0.00 0.00 0.00 83 1014.7
20260507055805 8 51 0.0 4.8 0.00 0.00 0.00 83 1014.6
20260507054805 8 94 1.6 9.7 0.00 0.00 0.00 82 1014.5
20260507054304 8 87 0.0 4.8 0.00 0.00 0.00 82 1014.5
20260507053805 8 85 0.0 4.8 0.00 0.00 0.00 82 1014.5
20260507053304 8 76 0.0 4.8 0.00 0.00 0.00 82 1014.5
20260507052805 8 111 3.2 9.7 0.00 0.00 0.00 82 1014.4
20260507052306 8 93 0.0 9.7 0.00 0.00 0.00 82 1014.4
20260507051805 8 94 0.0 0.0 0.00 0.00 0.00 82 1014.5
20260507051305 8 94 0.0 4.8 0.00 0.00 0.00 82 1014.5
20260507050805 8 96 4.8 9.7 0.00 0.00 0.00 82 1014.4
20260507050305 8 112 0.0 4.8 0.00 0.00 0.00 82 1014.4
20260507045804 8 115 0.0 8.0 0.00 0.00 0.00 82 1014.5
20260507045306 8 95 1.6 4.8 0.00 0.00 0.00 81 1014.5
20260507044805 8 91 0.0 0.0 0.00 0.00 0.00 81 1014.4
20260507043805 8 98 1.6 9.7 0.00 0.00 0.00 81 1014.3
20260507043305 8 101 0.0 0.0 0.00 0.00 0.00 81 1014.3
20260507042805 8 108 0.0 0.0 0.00 0.00 0.00 81 1014.3
20260507042307 9 92 0.0 0.0 0.00 0.00 0.00 80 1014.3
20260507040304 9 91 0.0 4.8 0.00 0.00 0.00 80 1014.4
20260507034305 9 122 0.0 0.0 0.00 0.00 0.00 80 1014.3
20260507033805 9 111 0.0 0.0 0.00 0.00 0.00 80 1014.2
20260507033305 9 106 0.0 0.0 0.00 0.00 0.00 80 1014.3
20260507032805 9 75 0.0 0.0 0.00 0.00 0.00 80 1014.3
20260507032306 9 85 0.0 0.0 0.00 0.00 0.00 80 1014.2
20260507031805 9 87 0.0 0.0 0.00 0.00 0.00 80 1014.2
20260507031305 9 96 0.0 4.8 0.00 0.00 0.00 80 1014.2
20260507030805 9 85 1.6 8.0 0.00 0.00 0.00 79 1014.3
20260507030305 9 86 0.0 4.8 0.00 0.00 0.00 79 1014.3
20260507025805 9 103 0.0 4.8 0.00 0.00 0.00 79 1014.3
20260507025306 9 85 3.2 8.0 0.00 0.00 0.00 79 1014.2
20260507024805 9 84 3.2 9.7 0.00 0.00 0.00 79 1014.3
20260507023805 9 100 0.0 4.8 0.00 0.00 0.00 79 1014.3
20260507023305 9 109 0.0 9.7 0.00 0.00 0.00 79 1014.2
20260507022805 9 88 1.6 9.7 0.00 0.00 0.00 79 1014.2
20260507022306 9 95 1.6 11.3 0.00 0.00 0.00 79 1014.2
20260507021804 9 82 3.2 9.7 0.00 0.00 0.00 79 1014.2
20260507020304 9 87 8.0 11.3 0.00 0.00 0.00 78 1014.2
20260507015804 9 98 6.4 9.7 0.00 0.00 0.00 78 1014.1
20260507015306 9 92 1.6 11.3 0.00 0.00 0.00 78 1014.1
20260507014805 9 79 4.8 11.3 0.00 0.00 0.00 78 1014.1
20260507014305 9 86 1.6 11.3 0.00 0.00 0.00 78 1014.2
20260507013805 10 113 1.6 11.3 0.00 0.00 0.00 78 1014.1
20260507013305 10 103 1.6 9.7 0.00 0.00 0.00 78 1014.1
20260507012804 10 67 0.0 9.7 0.00 0.00 0.00 77 1014.2
20260507012306 10 88 3.2 11.3 0.00 0.00 0.00 77 1014.2
20260507011805 10 76 1.6 8.0 0.00 0.00 0.00 77 1014.2
20260507011304 10 77 1.6 9.7 0.00 0.00 0.00 77 1014.2
20260507010805 10 97 3.2 9.7 0.00 0.00 0.00 77 1014.2
20260507010304 10 93 4.8 9.7 0.00 0.00 0.00 76 1014.2
20260507005306 10 109 3.2 9.7 0.00 0.00 0.00 76 1014.1
20260507004305 10 92 1.6 9.7 0.00 0.00 0.00 75 1014.1
20260507003305 10 94 0.0 9.7 0.00 0.00 0.00 75 1014.1
20260507002805 10 97 0.0 9.7 0.00 0.00 0.00 75 1014.1
20260507002306 10 92 0.0 8.0 0.00 0.00 0.00 74 1014.1
20260507001805 10 96 1.6 4.8 0.00 0.00 0.00 74 1014.1
20260507001305 10 95 0.0 8.0 0.00 0.00 0.00 73 1014.2
20260507000306 10 101 4.8 11.3 0.00 0.00 0.00 72 1014.3
20260506235805 10 100 0.0 12.9 0.00 0.00 0.00 72 1014.3
20260506235306 10 99 6.4 16.1 0.00 0.00 0.00 72 1014.3
20260506234805 10 91 8.0 9.7 0.00 0.00 0.00 71 1014.2
20260506234305 10 110 3.2 8.0 0.00 0.00 0.00 71 1014.2
20260506233805 10 96 1.6 9.7 0.00 0.00 0.00 71 1014.2
20260506233305 10 90 4.8 9.7 0.00 0.00 0.00 70 1014.2
20260506232805 10 97 4.8 8.0 0.00 0.00 0.00 70 1014.2
20260506232306 10 124 0.0 4.8 0.00 0.00 0.00 69 1014.1
20260506231805 11 73 1.6 4.8 0.00 0.00 0.00 69 1014.2
20260506231304 11 85 0.0 1.6 0.00 0.00 0.00 69 1014.2
20260506230819 11 92 0.0 0.0 0.00 0.00 0.00 68 1014.2
20260506230305 11 93 0.0 4.8 0.00 0.00 0.00 68 1014.2
20260506225805 11 74 0.0 1.6 0.00 0.00 0.00 68 1014.2
20260506225306 11 97 0.0 0.0 0.00 0.00 0.00 68 1014.2
20260506223305 11 107 1.6 8.0 0.00 0.00 0.00 67 1014.1
20260506222805 11 99 4.8 8.0 0.00 0.00 0.00 67 1014.0
20260506222306 11 111 0.0 0.0 0.00 0.00 0.00 67 1014.0
20260506221304 11 90 1.6 4.8 0.00 0.00 0.00 65 1014.0
20260506220804 11 104 0.0 4.8 0.00 0.00 0.00 65 1013.9
20260506215804 11 83 0.0 3.2 0.00 0.00 0.00 65 1013.9
20260506215306 11 88 1.6 8.0 0.00 0.00 0.00 64 1013.9
20260506214804 11 86 3.2 8.0 0.00 0.00 0.00 64 1013.9
20260506214305 11 90 1.6 8.0 0.00 0.00 0.00 63 1013.9
20260506213804 11 85 0.0 0.0 0.00 0.00 0.00 63 1013.9
20260506213305 11 88 0.0 3.2 0.00 0.00 0.00 63 1013.8
20260506212805 11 89 0.0 1.6 0.00 0.00 0.00 63 1013.9
20260506212306 12 84 0.0 0.0 0.00 0.00 0.00 63 1013.9
20260506211805 12 84 0.0 0.0 0.00 0.00 0.00 63 1013.8
20260506210804 12 77 0.0 0.0 0.00 0.00 0.00 62 1013.7
20260506205804 12 71 0.0 1.6 0.00 0.00 0.00 60 1013.6
20260506205306 12 101 0.0 4.8 0.00 0.00 0.00 59 1013.6
20260506204804 12 101 0.0 0.0 0.00 0.00 0.00 58 1013.6
20260506204305 12 101 0.0 1.6 0.00 0.00 0.00 58 1013.6
20260506203804 12 101 0.0 0.0 0.00 0.00 0.00 58 1013.6
20260506203305 12 101 0.0 0.0 0.00 0.00 0.00 58 1013.5
20260506202804 12 101 0.0 0.0 0.00 0.00 0.00 58 1013.5
20260506202306 13 101 0.0 0.0 0.00 0.00 0.00 57 1013.5
20260506201805 13 101 1.6 4.8 0.00 0.00 0.00 57 1013.5
20260506201304 13 101 1.6 3.2 0.00 0.00 0.00 57 1013.5
20260506200805 13 101 1.6 4.8 0.00 0.00 0.00 57 1013.4
20260506200305 13 101 1.6 4.8 0.00 0.00 0.00 57 1013.3
20260506195805 13 101 3.2 4.8 0.00 0.00 0.00 57 1013.3
20260506194805 13 102 3.2 4.8 0.00 0.00 0.00 56 1013.2
20260506194305 13 105 3.2 4.8 0.00 0.00 0.00 56 1013.1
20260506193804 13 88 1.6 4.8 0.00 0.00 0.00 56 1013.1
20260506193305 13 88 1.6 4.8 0.00 0.00 0.00 55 1013.1
20260506192804 13 87 0.0 0.0 0.00 0.00 0.00 55 1013.0
20260506192306 13 60 0.0 4.8 0.00 0.00 0.00 55 1013.0
20260506191805 14 81 1.6 4.8 0.00 0.00 0.00 55 1013.1
20260506191305 14 75 3.2 4.8 0.00 0.00 0.00 55 1013.0
20260506190804 14 78 0.0 8.0 0.00 0.00 0.00 55 1013.1
20260506190305 14 93 1.6 4.8 0.00 0.00 0.00 55 1013.1
20260506185805 14 78 3.2 8.0 0.00 0.00 0.00 56 1013.1
20260506184805 14 79 4.8 11.3 0.00 0.00 0.00 56 1012.9
20260506184305 14 42 3.2 8.0 0.00 0.00 0.00 56 1012.9
20260506183804 14 55 3.2 11.3 0.00 0.00 0.00 55 1012.9
20260506183305 15 29 4.8 8.0 0.00 0.00 0.00 55 1012.9
20260506182804 15 72 3.2 4.8 0.00 0.00 0.00 55 1012.9
20260506182306 15 86 3.2 8.0 0.00 0.00 0.00 54 1012.8
20260506181804 15 98 3.2 8.0 0.00 0.00 0.00 54 1012.9
20260506181304 15 327 3.2 9.7 0.00 0.00 0.00 53 1012.8
20260506180805 15 58 3.2 8.0 0.00 0.00 0.00 53 1012.8
20260506175306 15 45 3.2 9.7 0.00 0.00 0.00 53 1012.7
20260506174304 15 65 1.6 8.0 0.00 0.00 0.00 51 1012.6
20260506173805 15 83 3.2 8.0 0.00 0.00 0.00 50 1012.6
20260506173305 15 37 3.2 8.0 0.00 0.00 0.00 50 1012.6
20260506172804 15 63 1.6 9.7 0.00 0.00 0.00 49 1012.6
20260506172307 16 48 3.2 4.8 0.00 0.00 0.00 49 1012.6
20260506171304 16 24 0.0 4.8 0.00 0.00 0.00 49 1012.6
20260506170804 16 57 1.6 4.8 0.00 0.00 0.00 50 1012.6
20260506170305 16 22 0.0 9.7 0.00 0.00 0.00 49 1012.5
20260506165804 16 47 3.2 9.7 0.00 0.00 0.00 49 1012.5
20260506165305 16 72 1.6 4.8 0.00 0.00 0.00 48 1012.5
20260506164304 16 92 0.0 4.8 0.00 0.00 0.00 47 1012.6
20260506163804 16 56 1.6 4.8 0.00 0.00 0.00 47 1012.6
20260506163304 16 23 1.6 9.7 0.00 0.00 0.00 46 1012.6
20260506162804 16 313 1.6 16.1 0.00 0.00 0.00 46 1012.5
20260506162307 16 86 3.2 8.0 0.00 0.00 0.00 47 1012.5
20260506161805 16 72 3.2 11.3 0.00 0.00 0.00 46 1012.5
20260506161305 16 73 3.2 14.5 0.00 0.00 0.00 46 1012.6
20260506160804 16 13 3.2 9.7 0.00 0.00 0.00 45 1012.7
20260506160304 16 78 1.6 8.0 0.00 0.00 0.00 47 1012.6
20260506155804 16 95 3.2 8.0 0.00 0.00 0.00 47 1012.7
20260506154805 16 63 3.2 9.7 0.00 0.00 0.00 45 1012.8
20260506154304 16 89 3.2 9.7 0.00 0.00 0.00 47 1012.8
20260506153304 16 107 1.6 11.3 0.00 0.00 0.00 46 1012.8